sat.trackr.live / text

‹ back to catalog

STARLINK-5858

NORAD 57264 · 2023-094AY

PAYLOAD ACTIVE UNKNOWN

§ Identity

Operator
Country
US
Launch date
2023-07-07
Launch site
AFWTR
Launch vehicle
Mass (kg)
RCS (m²)

Purposes: comms

External: N2YO · Heavens-Above · Gunter

§ Orbital elements

Epoch: 2026-05-25T03:27:12.076992Z

Period
94.27 min
Inclination
43.0017°
Eccentricity
0.0001095
Mean motion
15.27570632 rev/d
Perigee alt
482.3 km
Apogee alt
483.8 km
Semi-major
6,861.2 km
B*
6.9322e-7
RAAN
308.0237°
Arg perigee
272.3381°
Mean anomaly
87.7345°
Rev number
15,893

§ Raw data

STARLINK-58581 57264U 23094AY  26145.14388978 -.00000243  00000+0  69322-6 0  99952 57264  43.0017 308.0237 0001095 272.3381  87.7345 15.27570632158933

JSON: /api/v1/satellites/57264 · /tle

For live sub-satellite position, see the globe view (requires WebGL).

§ Visibility from observer

Set your observer location to see the next 7 days of passes ≥ 10°. The values pass through the URL so the page stays shareable.

No JS? Fill the form by hand. The geolocation button needs JavaScript.